Miscellaneous Local Product
Issued by NWS North Platte, NE

Home | Current Version | Previous Version | Text Only | Print | Product List | Glossary On
Versions: 1 2 3 4 5 6 7 8 9 10 11 12 13 14 15 16 17 18 19 20 21 22 23 24 25 26 27 28 29 30 31 32 33 34 35 36 37 38 39 40 41 42 43 44 45 46 47 48 49 50
000
AXUS43 KLBF 060010
MISLBF


WESTERN AND NORTH CENTRAL NEBRASKA HOURLY WEATHER ROUNDUP
NATIONAL WEATHER SERVICE NORTH PLATTE NE
700 PM CDT THU MAY 05 2016

NOTE: "FAIR" INDICATES FEW OR NO CLOUDS BELOW 12,000 FEET WITH NO
SIGNIFICANT WEATHER AND/OR OBSTRUCTIONS TO VISIBILITY.

NOTE: STATIONS NOT REPORTING VARIABLES SUCH AS SKY/WEATHER OR
PRESSURE ARE PROVIDED BY RAWS AND APRS NETWORKS AND ARE NOT UNDER
NATIONAL WEATHER SERVICE QUALITY CONTROL.

...OBSERVATIONS IN AND NEAR THE EASTERN PANHANDLE OF NEBRASKA...

CITY           SKY/WX    TMP DP  RH WIND       PRES   REMARKS
PINE RIDGE     CLOUDY    85  37  18 W6        29.88F
CHADRON        PTSUNNY   82  51  34 S6        29.87F
ALLIANCE       MOSUNNY   77  45  32 S8        29.93F
SIDNEY         CLOUDY    79  32  18 SW9       29.99F
BIG SPRINGS      N/A     84  44  24 S15         N/A
$$

...OBSERVATIONS IN NORTHERN NEBRASKA AND FAR SOUTHERN SOUTH DAKOTA...

CITY           SKY/WX    TMP DP  RH WIND       PRES   REMARKS
WINNER         LGT RAIN  83  48  29 S16       29.86F
VALENTINE      SUNNY     84  39  20 S17       29.88F
THEDFORD       SUNNY     82  46  28 S15G22    29.96S
AINSWORTH      SUNNY     80  46  29 S13       29.92F
O`NEILL        SUNNY     79  44  29 S9        29.95F
ORD            SUNNY     78  45  30 S10       29.95F
BROKEN BOW     LGT RAIN  79  52  38 S13       29.97F
VALENTINE NWR    N/A     85  42  21 S13G20      N/A
BUTTE            N/A     79  49  34 SE13G20     N/A
HALSEY           N/A     83  41  22 S9G16       N/A
CHAMBERS         N/A     82  48  30 S8          N/A
EWING            N/A     80  47  30 S8          N/A
$$

...OBSERVATIONS IN SOUTHWEST NEBRASKA AND FAR NORTHEAST COLORADO...

CITY           SKY/WX    TMP DP  RH WIND       PRES   REMARKS
HOLYOKE        FAIR      81  41  24 S15       29.98S
IMPERIAL       CLOUDY    79  44  28 S16       29.97F
OGALLALA       SUNNY     78  39  24 S14       29.96F
NORTH PLATTE   SUNNY     78  46  32 S14G22    29.96F
MCCOOK         CLOUDY    76  48  37 S15       29.98F
LEXINGTON      SUNNY     81  48  31 S15       29.98F
PAXTON           N/A     81  48  31 S14         N/A
STAPLETON        N/A     81  48  31 CALM        N/A
GOTHENBURG       N/A     80  41  24 S10         N/A
CALLAWAY         N/A     79  49  34 S13         N/A
$$

...OBSERVATIONS IN CENTRAL LINCOLN COUNTY AREA...

CITY           SKY/WX    TMP DP  RH WIND       PRES   REMARKS
N.P. AIRPORT   SUNNY     78  46  32 S14G22    29.96F
N.P. DOWNTOWN    N/A     81  49  32 S7          N/A
N.P. SOUTHEAST   N/A     79  48  33 S12         N/A
N.P. HILLCREST   N/A     79  48  33 S12G18      N/A
$$

...SOME OBSERVATIONS FROM AROUND THE REGION...

CITY           SKY/WX    TMP DP  RH WIND       PRES   REMARKS
DENVER         CLOUDY    75  37  25 SE10      30.01F
LARAMIE        CLOUDY    69  26  20 N8        30.11F
CHEYENNE       CLOUDY    73  32  22 S8        30.05F
SCOTTSBLUFF    CLOUDY    81  41  24 E3        29.93F
RAPID CITY     CLOUDY    79  51  37 E7        29.87F
BISMARCK       CLOUDY    87  43  21 SW6       29.78S
PIERRE         SUNNY     82  51  34 SE14      29.80F
SIOUX FALLS    MOSUNNY   75  46  35 S8        29.93F
OMAHA          PTSUNNY   76  43  30 SE8       29.99F
GRAND ISLAND   SUNNY     79  41  25 S9        29.98F
KANSAS CITY    MOSUNNY   71  42  35 N5        30.03S
WICHITA        MOSUNNY   79  39  23 CALM      30.00F
OKLAHOMA CITY  MOSUNNY   79  41  25 E3        30.01F
DALLAS         MOSUNNY   79  45  29 N7        29.98F
AMARILLO       SUNNY     83  33  16 S10       30.01F
DODGE CITY     SUNNY     75  48  38 SE13      30.02F
HAYS           SUNNY     77  45  31 SE10      30.01F
GOODLAND       CLOUDY    77  44  30 SE16G23   30.00F
$$




USA.gov is the U.S. government's official web portal to all federal, state and local government web resources and services.